Home > Weather > Prudhoe Bay > Past weeks

Flag for USA Weather for the Past 2 Weeks in Prudhoe Bay, Alaska, USA

Now
26 °F

Light snow. Ice fog.


Feels Like: 19 °F
Forecast: 24 / 30 °F
Wind: 6 mph from West

Location: Deadhorse Airport

Current Time: May 1, 2016 at 7:40:20 AM

Latest Report: May 1, 2016 at 7:01 AM


Visibility: 2 mi

Pressure: 29.82 "Hg

Humidity: 92%

Dew Point: 24 °F

Location of Prudhoe BayLocation

Historic Weather in Prudhoe Bay — Graph

°F

Prudhoe Bay Temperature Yesterday

Maximum temperature yesterday: 29 °F (at 3:53 PM)
Minimum temperature yesterday: 23 °F (at 5:53 AM)
Average temperature yesterday: 26 °F

High & Low Weather Summary for the Past Weeks

 TemperatureHumidityPressure
High29 °F (Apr 30, 3:53 PM)100% (Apr 23, 7:53 AM)30.35 "Hg (Apr 23, 7:53 AM)
Low-1 °F (Apr 23, 5:53 AM)76% (Apr 16, 5:53 AM)29.80 "Hg (Apr 30, 11:53 PM)
Average18 °F88%30.06 "Hg
* Reported Apr 16 5:53 AM — May 1 5:53 AM, Prudhoe Bay, Weather by CustomWeather, © 2016

Note: Actual official high and low records may vary slightly from our data, if they occured in-between our weather recording intervals... More about our weather records

Advertising

Prudhoe Bay Weather History for the Previous 24 Hours

Scroll right to see more
 ConditionsComfort  
Time TempWeatherWind HumidityBarometerVisibility
5:53 AM
Sun, May 1
26 °FLow clouds.5 mph92%29.82 "Hg10 mi
4:53 AM26 °FLow clouds.3 mph92%29.81 "Hg10 mi
3:53 AM26 °FLow clouds.5 mph92%29.81 "Hg10 mi
2:53 AM26 °FLight snow. Ice fog.3 mph92%29.81 "Hg5 mi
1:53 AM27 °FLight snow. Ice fog.5 mph89%29.80 "Hg6 mi
12:53 AM27 °FLight snow. Ice fog.7 mph89%29.80 "Hg5 mi
11:53 PM
Sat, Apr 30
27 °FLight snow. Ice fog.8 mph89%29.80 "Hg6 mi
10:53 PM27 °FLight snow. Ice fog.6 mph89%29.80 "Hg5 mi
9:53 PM27 °FLight snow. Ice fog.7 mph89%29.80 "Hg5 mi
8:53 PM28 °FLight snow. Low clouds.10 mph89%29.81 "Hg7 mi
7:53 PM28 °FLow clouds.8 mph89%29.81 "Hg9 mi
6:53 PM29 °FOvercast.12 mph85%29.82 "Hg8 mi
5:53 PM29 °FLight snow. Ice fog.12 mph89%29.83 "Hg3 mi
4:53 PM29 °FOvercast.10 mph85%29.84 "Hg10 mi
3:53 PM29 °FLow clouds.10 mph85%29.85 "Hg7 mi
2:53 PM28 °FLow clouds.12 mph89%29.86 "Hg10 mi
1:53 PM27 °FLow clouds.7 mph92%29.88 "Hg8 mi
12:53 PM27 °FLow clouds.9 mph92%29.89 "Hg10 mi
11:53 AM26 °FIce fog.5 mph96%29.90 "Hg5 mi
10:53 AM25 °FIce fog.6 mph92%29.90 "Hg2 mi
9:53 AM24 °FIce fog.5 mph96%29.92 "Hg1 mi
8:53 AM23 °FIce fog.5 mph100%29.93 "Hg1 mi
7:50 AM23 °FIce fog.7 mph96%29.93 "Hg1 mi
7:01 AM23 °FIce fog.7 mph96%29.93 "Hg0 mi
Weather by CustomWeather, © 2016

See weather overviewHow to use our weather pages